sat.trackr.live / text

‹ back to catalog

STARLINK-35478

NORAD 65917 · 2025-225H

PAYLOAD ACTIVE UNKNOWN

§ Identity

Operator
Country
US
Launch date
2025-10-08
Launch site
AFWTR
Launch vehicle
Mass (kg)
RCS (m²)

Purposes: comms

External: N2YO · Heavens-Above · Gunter

§ Orbital elements

Epoch: 2026-09-20T22:34:10.863264Z

Period
93.85 min
Inclination
53.1618°
Eccentricity
0.0000850
Mean motion
15.34401184 rev/d
Perigee alt
462.1 km
Apogee alt
463.3 km
Semi-major
6,840.8 km
B*
3.7548e-4
RAAN
335.7963°
Arg perigee
115.6681°
Mean anomaly
244.4410°
Rev number
5,434

§ Raw data

STARLINK-354781 65917U 25225H   26263.94040351  .00012331  00000+0  37548-3 0  99982 65917  53.1618 335.7963 0000850 115.6681 244.4410 15.34401184 54347

JSON: /api/v1/satellites/65917 · /tle

For live sub-satellite position, see the globe view (requires WebGL).

§ Visibility from observer

Set your observer location to see the next 7 days of passes ≥ 10°. The values pass through the URL so the page stays shareable.

No JS? Fill the form by hand. The geolocation button needs JavaScript.